Starlink 32466

operational
NORAD ID: 61859 Int'l Des: 2024-202 Owner: SPXS Country: US Constellation: starlink
LEOCIRCULAR

关于 Starlink 32466

正在加载描述...

实时位置

正在加载3D地球...

即将过境

高度历史

Altitude vs Time

uPlot chart will show altitude changes over time

两行轨道根数

1 61859U 24202Q 25304.85326507 -.00000103 00000-0 57970-5 0 9997
2 61859 43.0028 245.6045 0001841 294.3383 65.7276 15.27566591 55639
Epoch: Oct 31, 2025 • Age: 17 hours

当前状态

高度 481.8 km
速度 7.63 km/s
星下点 7.52°N, 1.7°E
发射日期 Nov 7, 2024
运行时间 0.9 years
类型 internet

技术详情

分类 Payload
质量 730.00 kg
干质量 700.00 kg
总质量 730.00 kg
长度 0.30 m
直径 4.10 m
跨度 29.00 m
形状 Box + pan
制造商 SPXS
平台类型 Starlink V2M
阶段状态 In Orbit
所有者/国家 SPXS/US

大型星座

Loading constellations...